Location: Grandview
(34.8900°N, 117.1058°W)
Time: 06:40:40
(UTC-07:00)

Envisat - Pass Details

Date: 15 October 2017
Orbit: 764 x 766 km, 98.2° (Epoch: 23 October)

Event Time Altitude Azimuth Distance (km) Brightness Sun altitude
Exits shadow 21:43:41 11° 315° (NW) 2,209 5.9 -43.3°
Drops below altitude 10° 21:44:00 10° 317° (NW) 2,304 6.0 -43.3°
Sets 21:46:45 0° 332° (NNW) 3,234 6.8 -43.9°
